STARLINK-1625, 46131

Orbit data source: Space-Track

STARLINK-1625, 46131 is a payload satellite owned by SpaceX/Seattle (US) in LEO that was launched on Tue, 18 Aug 2020 UTC via an FALCON 9 launch vehicle from the Air Force Eastern Test Range (AFETR). Payloads include a variety of satellites, spacecraft, and rockets equipped with specific instruments for various scientific and technological missions. These include communications satellites like Starlink; space stations such as the ISS; scientific satellites like the Hubble; Earth observation satellites from companies like Planet Labs, Umbra, and HawkEye 360; GPS; miniature CubeSats for education and research; and military/defense satellites.

Loading next visibility...
STARLINK-1625 details
Identifier
46131, 2020-057Q
Orbit
LEO
Last TLE update7 hours ago
Origin
Flag of USSpaceX/Seattle (US)
ManufacturerSpaceX/Seattle
MissionOperational Commercial Communications
Bus & MotorSTARLINK, Unknown motor
Mass260 kg wet, ~248 kg dry
Launch date (UTC)
2020-08-18 (4 years ago)
Launch vehicle
FALCON 9
Launch site
Air Force Eastern Test Range (AFETR)
Object type
Payload
Rocket body
Debris
Shape & HBRBox + 1 Pan, 8.86 m
Radar Cross Section13.562 m², Large (>1 m²)

Expand to show TLE details & history

TLE from 7 hours ago
0 STARLINK-1625
1 46131U 20057Q   24339.84809351  .00005782  00000-0  40655-3 0  9993
2 46131  53.0523 200.9243 0001663  79.6260 280.4916 15.06414981237709
Epoch: 2024-12-04T20:21Z
Definitive object data (Epoch: 2024-12-04T20:21:15.279Z)
Latitude-0.00004°
Longitude-178.52676°
Altitude547.835 km
Speed7.589 km/s
True Right ascension13h 23m 41s
True Declination0° 00' 00"
Sunlit
Object was in daylight at TLE epoch
Visualization TLE readout
Latitude42.43245°
Longitude-136.62474°
Altitude550.205 km
Speed7.593 km/s
Apparent Right ascension14h 35m 50s
Apparent Declination3° 38' 53"
Sunlit
Object is in daylight
Visualization observer readout
Local Sidereal Time00:55:45
Azimuth326.141° NNW
Elevation-40.751°
Doppler factor1
Orbital elements
Apogee altitude548.588 km
Perigee altitude546.285 km
Semi-major axis6,925.574 km
Eccentricity0.0001663
Inclination53.0523°
RAAN200.9243°
Arg. of periapsis79.626°
True anomaly280.47286°
Mean anomaly280.4916°
Eccentric anomaly280.48223°
Mean motion3.76582 °/min
BSTAR0.00040655
Orbital period95.6 mins
Loading maneuver chart data...
Loading historical data...
Loading historical data...
Loading historical data...
Loading historical data...
Loading historical data...
Loading historical data...
Loading historical data...

STARLINK-1625 Visibility forecast

Observer location: undefined°, undefined

Span
Click to sort rows by Start time (UTC) header in descending order
Start Az.
Max El. time (UTC)
Max El. Az.
Max El.
End time (UTC)
End Az.
7 mins2024-12-05 17:12:36.049Z210.528° SW2024-12-05 17:16:36.049Z119.756° SE37.763°2024-12-05 17:19:36.049Z61.737° ENE
5 mins2024-12-05 18:53:36.049Z282.781° WNW2024-12-05 18:55:36.049Z321.116° NNW24.86°2024-12-05 18:58:36.049Z24.498° NE
6 mins2024-12-05 23:55:36.049Z327.288° NNW2024-12-05 23:57:36.049Z22.665° NE38.489°2024-12-06 00:01:36.049Z112.775° SE
4 mins2024-12-06 01:35:36.049Z260.348° W2024-12-06 01:36:36.049Z241.078° WSW19.744°2024-12-06 01:39:36.049Z187.11° SSW
|